OAS8417 SKCL-SKBO

Flight info

Callsign OAS8417
Flight time 0h 46m
Altitude 29000
Route ULQ1K ULQ W1 TOLIM TOLIM5W
Aircraft A320/M-SDE3FGHIRWY/LB1

Departure

Time 2026-04-25 20:25
Airport Alfonso Bonilla Aragon International Airport (SKCL)

Arrival

Time 2026-04-25 21:12
Airport El Dorado International Airport (SKBO)
Time Latitude Longitude Altitude Speed Heading
2026-04-25 20:07 3.53708 -76.38602 3162 ft 0 kts 250°
2026-04-25 20:16 3.53712 -76.38591 3163 ft 4 kts 250°
2026-04-25 20:16 3.53722 -76.38566 3163 ft 3 kts 244°
2026-04-25 20:17 3.53729 -76.38553 3163 ft 2 kts 215°
2026-04-25 20:17 3.53739 -76.38548 3164 ft 2 kts 155°
2026-04-25 20:17 3.53749 -76.38554 3163 ft 2 kts 145°
2026-04-25 20:17 3.53758 -76.38560 3163 ft 2 kts 142°
2026-04-25 20:18 3.53763 -76.38564 3162 ft 0 kts 142°
2026-04-25 20:21 3.53756 -76.38559 3163 ft 7 kts 142°
2026-04-25 20:22 3.53673 -76.38496 3163 ft 18 kts 143°
2026-04-25 20:22 3.53639 -76.38472 3162 ft 18 kts 147°
2026-04-25 20:22 3.53436 -76.38476 3162 ft 19 kts 190°
2026-04-25 20:22 3.53306 -76.38502 3162 ft 20 kts 192°
2026-04-25 20:23 3.53168 -76.38531 3163 ft 20 kts 190°
2026-04-25 20:23 3.53042 -76.38554 3162 ft 17 kts 189°
2026-04-25 20:23 3.52997 -76.38524 3162 ft 6 kts 108°
2026-04-25 20:23 3.52989 -76.38457 3161 ft 14 kts 78°
2026-04-25 20:24 3.53055 -76.38386 3160 ft 13 kts 351°
2026-04-25 20:24 3.53083 -76.38382 3160 ft 0 kts 12°
2026-04-25 20:24 3.53087 -76.38381 3160 ft 4 kts 12°
2026-04-25 20:24 3.53336 -76.38339 3162 ft 73 kts
2026-04-25 20:25 3.54057 -76.38218 3166 ft 134 kts
2026-04-25 20:25 3.55137 -76.38042 3262 ft 173 kts
2026-04-25 20:25 3.56310 -76.37827 4009 ft 171 kts
2026-04-25 20:25 3.57493 -76.37594 4759 ft 175 kts
2026-04-25 20:26 3.58736 -76.37380 5305 ft 191 kts
2026-04-25 20:26 3.60123 -76.37151 5692 ft 213 kts
2026-04-25 20:26 3.61601 -76.36901 6231 ft 217 kts
2026-04-25 20:26 3.63102 -76.36644 6918 ft 220 kts 10°
2026-04-25 20:27 3.64613 -76.36308 7542 ft 230 kts 15°
2026-04-25 20:27 3.66227 -76.35832 7874 ft 254 kts 17°
2026-04-25 20:27 3.67989 -76.35274 8225 ft 275 kts 18°
2026-04-25 20:27 3.69840 -76.34680 8862 ft 283 kts 18°
2026-04-25 20:28 3.71728 -76.34075 9613 ft 288 kts 18°
2026-04-25 20:28 3.73662 -76.33457 10226 ft 299 kts 17°
2026-04-25 20:28 3.75721 -76.32804 10440 ft 322 kts 17°
2026-04-25 20:28 3.77906 -76.32118 10918 ft 334 kts 17°
2026-04-25 20:29 3.80147 -76.31419 11582 ft 340 kts 17°
2026-04-25 20:29 3.82423 -76.30708 12268 ft 345 kts 17°
2026-04-25 20:29 3.84728 -76.29987 12936 ft 350 kts 16°
2026-04-25 20:29 3.87065 -76.29257 13606 ft 353 kts 16°
2026-04-25 20:30 3.89423 -76.28522 14249 ft 357 kts 16°
2026-04-25 20:30 3.91811 -76.27779 14807 ft 362 kts 16°
2026-04-25 20:30 3.94226 -76.27028 15369 ft 365 kts 16°
2026-04-25 20:30 3.96655 -76.26270 15999 ft 367 kts 16°
2026-04-25 20:31 3.99106 -76.25502 16602 ft 370 kts 16°
2026-04-25 20:31 4.01576 -76.24729 17194 ft 374 kts 16°
2026-04-25 20:31 4.03228 -76.24213 17575 ft 376 kts 16°
2026-04-25 20:31 4.06456 -76.22823 18304 ft 382 kts 31°
2026-04-25 20:32 4.07889 -76.21783 18659 ft 386 kts 40°
2026-04-25 20:32 4.09730 -76.19818 19188 ft 390 kts 53°
2026-04-25 20:32 4.11441 -76.16603 19878 ft 395 kts 69°
2026-04-25 20:32 4.12094 -76.14900 20213 ft 397 kts 69°
2026-04-25 20:33 4.13090 -76.12311 20730 ft 399 kts 69°
2026-04-25 20:33 4.14095 -76.09709 21208 ft 402 kts 69°
2026-04-25 20:33 4.15108 -76.07089 21675 ft 404 kts 69°
2026-04-25 20:33 4.15781 -76.05350 21975 ft 407 kts 69°
2026-04-25 20:34 4.17160 -76.01801 22573 ft 410 kts 69°
2026-04-25 20:34 4.18194 -75.99132 23003 ft 412 kts 69°
2026-04-25 20:34 4.19229 -75.96444 23418 ft 415 kts 69°
2026-04-25 20:34 4.20270 -75.93741 23819 ft 417 kts 69°
2026-04-25 20:35 4.21316 -75.91022 24209 ft 420 kts 69°
2026-04-25 20:35 4.22375 -75.88292 24602 ft 422 kts 69°
2026-04-25 20:35 4.23452 -75.85555 24924 ft 423 kts 69°
2026-04-25 20:35 4.24530 -75.82829 24996 ft 414 kts 69°
2026-04-25 20:36 4.25577 -75.80193 25007 ft 402 kts 69°
2026-04-25 20:36 4.26604 -75.77606 25024 ft 398 kts 69°
2026-04-25 20:36 4.27621 -75.75031 25020 ft 397 kts 69°
2026-04-25 20:36 4.28632 -75.72455 25003 ft 397 kts 69°
2026-04-25 20:37 4.29642 -75.69884 25026 ft 396 kts 69°
2026-04-25 20:37 4.30651 -75.67313 25028 ft 397 kts 69°
2026-04-25 20:37 4.31660 -75.64741 25015 ft 396 kts 69°
2026-04-25 20:37 4.32670 -75.62173 25017 ft 396 kts 69°
2026-04-25 20:38 4.33683 -75.59609 25020 ft 396 kts 69°
2026-04-25 20:38 4.34691 -75.57044 25031 ft 396 kts 69°
2026-04-25 20:38 4.35687 -75.54509 25024 ft 396 kts 69°
2026-04-25 20:38 4.36697 -75.51943 25020 ft 396 kts 69°
2026-04-25 20:39 4.37754 -75.49401 25015 ft 396 kts 63°
2026-04-25 20:39 4.39073 -75.46977 25003 ft 396 kts 61°
2026-04-25 20:39 4.40410 -75.44571 24999 ft 396 kts 61°
2026-04-25 20:39 4.41317 -75.42944 24989 ft 395 kts 61°
2026-04-25 20:40 4.43091 -75.39761 24991 ft 395 kts 61°
2026-04-25 20:40 4.44431 -75.37359 25005 ft 395 kts 61°
2026-04-25 20:40 4.45770 -75.34954 24995 ft 395 kts 61°
2026-04-25 20:40 4.47110 -75.32547 24994 ft 395 kts 61°
2026-04-25 20:41 4.48447 -75.30143 24981 ft 395 kts 61°
2026-04-25 20:41 4.49786 -75.27736 24978 ft 395 kts 61°
2026-04-25 20:41 4.51124 -75.25331 24976 ft 395 kts 61°
2026-04-25 20:41 4.52462 -75.22925 24979 ft 395 kts 61°
2026-04-25 20:42 4.53799 -75.20519 24922 ft 393 kts 61°
2026-04-25 20:42 4.55114 -75.18152 24668 ft 384 kts 61°
2026-04-25 20:42 4.56399 -75.15840 24418 ft 376 kts 61°
2026-04-25 20:42 4.57659 -75.13571 24065 ft 371 kts 61°
2026-04-25 20:43 4.58908 -75.11321 23573 ft 369 kts 60°
2026-04-25 20:43 4.60155 -75.09074 23105 ft 368 kts 60°
2026-04-25 20:43 4.61398 -75.06835 22626 ft 367 kts 60°
2026-04-25 20:43 4.62635 -75.04605 22153 ft 366 kts 60°
2026-04-25 20:44 4.63747 -75.02600 21731 ft 365 kts 60°
2026-04-25 20:44 4.64979 -75.00378 21263 ft 364 kts 60°
2026-04-25 20:44 4.66209 -74.98163 20794 ft 363 kts 60°
2026-04-25 20:44 4.67434 -74.95957 20338 ft 362 kts 60°
2026-04-25 20:45 4.68648 -74.93749 19888 ft 361 kts 60°
2026-04-25 20:45 4.69861 -74.91555 19434 ft 359 kts 60°
2026-04-25 20:45 4.71077 -74.89371 18986 ft 358 kts 60°
2026-04-25 20:45 4.72291 -74.87196 18529 ft 357 kts 60°
2026-04-25 20:46 4.73499 -74.85031 18085 ft 356 kts 60°
2026-04-25 20:46 4.74728 -74.82882 17631 ft 354 kts 55°
2026-04-25 20:46 4.76380 -74.81079 17182 ft 352 kts 39°
2026-04-25 20:46 4.77646 -74.80076 16969 ft 347 kts 33°
2026-04-25 20:47 4.78614 -74.79531 17095 ft 327 kts 21°
2026-04-25 20:47 4.80473 -74.79054 19435 ft 253 kts
2026-04-25 20:47 4.82220 -74.79232 19762 ft 258 kts 342°
2026-04-25 20:47 4.84001 -74.79750 19060 ft 276 kts 345°
2026-04-25 20:48 4.85934 -74.80185 18271 ft 294 kts 348°
2026-04-25 20:48 4.88007 -74.80559 17450 ft 312 kts 350°
2026-04-25 20:48 4.90197 -74.80894 16814 ft 322 kts 351°
2026-04-25 20:48 4.92425 -74.81202 16630 ft 325 kts 352°
2026-04-25 20:49 4.94686 -74.81266 16600 ft 327 kts
2026-04-25 20:49 4.96917 -74.80819 16604 ft 328 kts 17°
2026-04-25 20:49 4.99096 -74.80125 16609 ft 329 kts 17°
2026-04-25 20:49 5.01276 -74.79438 16604 ft 329 kts 17°
2026-04-25 20:50 5.03460 -74.78756 16618 ft 329 kts 17°
2026-04-25 20:50 5.05643 -74.78078 16637 ft 329 kts 17°
2026-04-25 20:50 5.07828 -74.77396 16651 ft 329 kts 17°
2026-04-25 20:50 5.09999 -74.76675 16642 ft 329 kts 22°
2026-04-25 20:51 5.12000 -74.75570 16636 ft 329 kts 36°
2026-04-25 20:51 5.13727 -74.74058 16636 ft 330 kts 43°
2026-04-25 20:51 5.15390 -74.72470 16634 ft 330 kts 43°
2026-04-25 20:51 5.17063 -74.70886 16633 ft 330 kts 43°
2026-04-25 20:52 5.18736 -74.69309 16634 ft 330 kts 43°
2026-04-25 20:52 5.19843 -74.68267 16641 ft 330 kts 43°
2026-04-25 20:52 5.22059 -74.66175 16644 ft 330 kts 43°
2026-04-25 20:52 5.23717 -74.64582 16645 ft 330 kts 46°
2026-04-25 20:53 5.25109 -74.62719 16642 ft 330 kts 60°
2026-04-25 20:53 5.26046 -74.60615 16659 ft 331 kts 69°
2026-04-25 20:53 5.26848 -74.58449 16662 ft 331 kts 69°
2026-04-25 20:53 5.27655 -74.56285 16675 ft 331 kts 69°
2026-04-25 20:54 5.28465 -74.54124 16681 ft 331 kts 69°
2026-04-25 20:54 5.29276 -74.51966 16692 ft 331 kts 69°
2026-04-25 20:54 5.30087 -74.49807 16707 ft 331 kts 69°
2026-04-25 20:54 5.30759 -74.47605 16717 ft 330 kts 79°
2026-04-25 20:55 5.30942 -74.45312 16736 ft 331 kts 92°
2026-04-25 20:55 5.30765 -74.43043 16753 ft 331 kts 95°
2026-04-25 20:55 5.30576 -74.40743 16754 ft 331 kts 94°
2026-04-25 20:55 5.30391 -74.38444 16761 ft 331 kts 94°
2026-04-25 20:56 5.30061 -74.36162 16771 ft 331 kts 108°
2026-04-25 20:56 5.29007 -74.34129 16790 ft 330 kts 129°
2026-04-25 20:56 5.27285 -74.32630 16805 ft 330 kts 151°
2026-04-25 20:56 5.25131 -74.31873 16810 ft 329 kts 173°
2026-04-25 20:57 5.22856 -74.31956 16831 ft 329 kts 194°
2026-04-25 20:57 5.20656 -74.32591 16838 ft 330 kts 197°
2026-04-25 20:57 5.18456 -74.33261 16811 ft 331 kts 198°
2026-04-25 20:57 5.16259 -74.33937 16801 ft 330 kts 198°
2026-04-25 20:58 5.14064 -74.34614 16807 ft 330 kts 198°
2026-04-25 20:58 5.11865 -74.35289 16809 ft 330 kts 197°
2026-04-25 20:58 5.09668 -74.35961 16810 ft 330 kts 197°
2026-04-25 20:58 5.07472 -74.36632 16820 ft 330 kts 197°
2026-04-25 20:59 5.05274 -74.37305 16818 ft 330 kts 197°
2026-04-25 20:59 5.03076 -74.37974 16822 ft 330 kts 197°
2026-04-25 20:59 5.00876 -74.38641 16650 ft 330 kts 197°
2026-04-25 20:59 4.98681 -74.39309 16015 ft 329 kts 197°
2026-04-25 21:00 4.96493 -74.39977 15378 ft 327 kts 197°
2026-04-25 21:00 4.95760 -74.40202 15184 ft 326 kts 197°
2026-04-25 21:00 4.90152 -74.40780 14833 ft 298 kts 165°
2026-04-25 21:01 4.88239 -74.40008 14838 ft 297 kts 152°
2026-04-25 21:01 4.86404 -74.39057 14854 ft 298 kts 153°
2026-04-25 21:01 4.84562 -74.38105 14782 ft 298 kts 153°
2026-04-25 21:01 4.82718 -74.37151 14403 ft 299 kts 153°
2026-04-25 21:02 4.80867 -74.36200 14101 ft 298 kts 153°
2026-04-25 21:02 4.79026 -74.35253 13849 ft 296 kts 152°
2026-04-25 21:02 4.77234 -74.34328 13720 ft 282 kts 152°
2026-04-25 21:02 4.75551 -74.33382 13648 ft 273 kts 149°
2026-04-25 21:03 4.73927 -74.32404 13668 ft 271 kts 148°
2026-04-25 21:03 4.72321 -74.31413 13670 ft 270 kts 148°
2026-04-25 21:03 4.70725 -74.30431 13660 ft 264 kts 149°
2026-04-25 21:03 4.69205 -74.29504 13678 ft 248 kts 148°
2026-04-25 21:04 4.67845 -74.28567 13662 ft 228 kts 137°
2026-04-25 21:04 4.66727 -74.27531 13637 ft 210 kts 137°
2026-04-25 21:04 4.65716 -74.26601 13654 ft 185 kts 137°
2026-04-25 21:04 4.64787 -74.25751 13653 ft 178 kts 137°
2026-04-25 21:05 4.63883 -74.24923 13673 ft 176 kts 137°
2026-04-25 21:05 4.63042 -74.24044 13664 ft 175 kts 126°
2026-04-25 21:05 4.62339 -74.23035 13394 ft 175 kts 124°
2026-04-25 21:05 4.61651 -74.22037 13149 ft 173 kts 123°
2026-04-25 21:06 4.60966 -74.21046 12918 ft 172 kts 123°
2026-04-25 21:06 4.60288 -74.20058 12699 ft 172 kts 123°
2026-04-25 21:06 4.59617 -74.19090 12475 ft 173 kts 123°
2026-04-25 21:06 4.59158 -74.18430 12323 ft 170 kts 123°
2026-04-25 21:07 4.58273 -74.17135 12026 ft 170 kts 120°
2026-04-25 21:07 4.57796 -74.16061 11807 ft 169 kts 106°
2026-04-25 21:07 4.57572 -74.14908 11587 ft 169 kts 94°
2026-04-25 21:07 4.57611 -74.13727 11352 ft 170 kts 81°
2026-04-25 21:08 4.57918 -74.12583 11136 ft 171 kts 67°
2026-04-25 21:08 4.58478 -74.11534 10913 ft 171 kts 54°
2026-04-25 21:08 4.59257 -74.10643 10697 ft 170 kts 40°
2026-04-25 21:08 4.60212 -74.09954 10468 ft 169 kts 27°
2026-04-25 21:09 4.62434 -74.09300 10032 ft 166 kts
2026-04-25 21:09 4.63578 -74.09363 9817 ft 164 kts 347°
2026-04-25 21:09 4.64664 -74.09687 9583 ft 162 kts 333°
2026-04-25 21:10 4.65636 -74.10243 9366 ft 160 kts 322°
2026-04-25 21:10 4.66487 -74.10954 9206 ft 159 kts 313°
2026-04-25 21:10 4.67197 -74.11795 8964 ft 158 kts 302°
2026-04-25 21:10 4.67843 -74.12696 8775 ft 159 kts 306°
2026-04-25 21:11 4.68517 -74.13575 8571 ft 160 kts 306°
2026-04-25 21:11 4.69189 -74.14462 8384 ft 159 kts 305°
2026-04-25 21:11 4.69774 -74.15251 8372 ft 118 kts 306°
2026-04-25 21:11 4.70176 -74.15759 8371 ft 68 kts 309°
2026-04-25 21:12 4.70357 -74.15987 8372 ft 19 kts 328°
2026-04-25 21:12 4.70404 -74.15977 8372 ft 5 kts 33°
2026-04-25 21:12 4.70430 -74.15960 8372 ft 6 kts 34°
2026-04-25 21:12 4.70440 -74.15953 8371 ft 5 kts 35°
2026-04-25 21:13 4.70483 -74.15922 8370 ft 5 kts 37°
2026-04-25 21:13 4.70519 -74.15876 8371 ft 11 kts 73°
2026-04-25 21:13 4.70470 -74.15784 8371 ft 19 kts 127°
2026-04-25 21:13 4.70390 -74.15679 8370 ft 19 kts 127°
2026-04-25 21:14 4.70308 -74.15568 8370 ft 20 kts 128°
2026-04-25 21:14 4.70219 -74.15457 8370 ft 21 kts 128°
2026-04-25 21:14 4.70129 -74.15340 8370 ft 21 kts 126°
2026-04-25 21:14 4.70041 -74.15217 8371 ft 22 kts 126°
2026-04-25 21:15 4.69949 -74.15092 8371 ft 23 kts 126°
2026-04-25 21:15 4.69851 -74.14969 8370 ft 23 kts 128°
2026-04-25 21:15 4.69861 -74.14860 8370 ft 15 kts 54°
2026-04-25 21:15 4.69888 -74.14763 8370 ft 15 kts 98°
2026-04-25 21:16 4.69881 -74.14662 8370 ft 15 kts 107°
2026-04-25 21:16 4.69871 -74.14630 8370 ft 0 kts 108°